COSMOS 2251 DEB, 40796

Orbit data source: Space-Track

COSMOS 2251 DEB, 40796 is space debris in LEO originally from a launch on Wed, 16 Jun 1993 UTC launched from the Plesetsk Missile And Space Complex (PKMTR). The debris from Iridium 33, an American commercial communications satellite, has been tracked extensively since its accidental collision with the defunct Russian satellite Cosmos 2251 in 2009. This event, occurring at high speed in low Earth orbit (LEO), generated thousands of pieces of space debris, significantly increasing the risk of further collisions. The Iridium 33 debris cloud has impacted space traffic management and orbital debris mitigation strategies, making it a subject of ongoing study in space situational awareness.

Loading next visibility...
Identifier
40796, 1993-036BVZ
Orbit
LEO
Country
Flag of CISCIS
Related business
Manufacturer
Unknown
Mission
Spacecraft
Bus & Motor
Unknown
Mass
Unknown
Launch date (UTC)
1993-06-16 (33 years ago)
Launch vehicle
Unknown
Launch site
Plesetsk Missile And Space Complex (PKMTR)
Object type
Payload
Rocket body
Debris
Shape & HBR
Unknown shape, 0.1 m
Radar Cross Section
Small (<0.1 m²)

Expand to show TLE details & history
Last TLE update: 18 hours ago

TLE from 18 hours ago
0 COSMOS 2251 DEB
1 40796U 93036BVZ 25350.17919461  .00005823  00000-0  72237-3 0  9992
2 40796  74.0115 135.3850 0056138 271.4254 267.9590 14.81749898762090
Epoch: 2025-12-16T04:18Z
TLE epoch observation values (Epoch: 2025-12-16T04:18:02.414Z)
Latitude
1.10343°
Longitude
165.49333°
Altitude
627.955 km
Speed
7.544 km/s
True Right ascension
21h 00m 16s
True Declination
1° 05' 48"
Sunlit
Object was in daylight at epoch
Visualization orbit readout
Latitude
Unknown
Longitude
Unknown
Altitude
Unknown
Speed
Unknown
Apparent Right ascension
Unknown
Apparent Declination
Unknown
Sunlit
N/A
Visualization observer readout
Local Sidereal Time
20:31:34
Azimuth
Unknown
Elevation
Unknown
Doppler factor
Unknown
Orbital elements
Apogee altitude
660.676 km
Perigee altitude
582.088 km
Semi-major axis
6,999.519 km
Eccentricity
0.00561
Inclination
74.0115°
RAAN
135.385°
Arg. of periapsis
271.4254°
True anomaly
267.31629°
Mean anomaly
267.959°
Eccentric anomaly
267.63763°
Mean motion
3.7063 °/min
Orbital period
97.13 mins
BSTAR
0.00072237

Documentation

Showing up to 5 results
|